Terminal Aerodrome Forecast
Issued by NWS

Home | Current Version | Previous Version | Text Only | Print | Product List | Glossary On
Versions: 1 2 3 4 5 6 7 8 9 10 11 12 13 14 15 16 17 18 19 20 21 22 23 24 25 26 27 28 29 30 31 32 33 34 35 36 37 38 39
000
FTAK31 PAFA 050423 AAA
TAFAOT
TAF AMD
PAOT 050423Z 0504/0524 00000KT 5SM BR OVC029
     FM051200 07004KT 3SM BR VCSH BKN015 OVC025
     FM051800 29008KT 1 1/2SM -SN BR OVC025=

USA.gov is the U.S. government's official web portal to all federal, state and local government web resources and services.